Location: Unspecified
(48.6244°N, 0.0000°E)
Time: 02:46:54
(UTC+00:00)

N. Korean satellite - Visible Passes

Search period start: 23 October 2019 00:00
Search period end: 02 November 2019 00:00
Orbit: 455 x 508 km, 97.2° (Epoch: 22 October)

Date Brightness Start Highest point End Pass type
(mag) Time Alt. Az. Time Alt. Az. Time Alt. Az.
23 Oct 9.7 05:06:33 10° NE 05:09:13 19° E 05:11:53 10° SE visible
24 Oct 10.6 04:43:16 10° E 04:43:39 10° E 04:44:03 10° E visible
25 Oct 7.4 05:48:34 10° NNE 05:52:11 57° E 05:55:49 10° S visible
25 Oct 9.9 18:02:20 10° SW 18:04:38 17° W 18:06:58 10° NW visible
26 Oct 8.9 05:23:32 10° NNE 05:26:47 29° E 05:30:02 10° SSE visible
26 Oct 8.7 17:36:00 10° SSW 17:39:08 31° W 17:42:19 10° NNW visible
27 Oct 10.0 04:58:57 10° NE 05:01:17 16° E 05:03:38 10° SE visible
28 Oct 6.6 06:05:57 10° NNE 06:09:38 87° W 06:13:21 10° SSW visible
28 Oct 10.4 18:21:21 10° WSW 18:22:13 11° W 18:23:07 10° WNW visible
29 Oct 7.9 05:40:43 10° NNE 05:44:17 46° E 05:47:52 10° S visible
29 Oct 9.6 17:54:00 10° SW 17:56:39 20° W 17:59:21 10° NW visible
30 Oct 9.3 05:15:46 10° NE 05:18:51 24° E 05:21:56 10° SSE visible
30 Oct 8.2 17:27:53 10° SSW 17:31:10 39° W 17:34:32 10° NNW visible
31 Oct 10.2 04:51:25 10° ENE 04:53:19 13° E 04:55:13 10° ESE visible
01 Nov 6.9 05:58:01 10° NNE 06:01:44 76° ESE 06:05:27 10° S visible
01 Nov 10.1 18:12:25 10° WSW 18:14:12 13° W 18:15:59 10° WNW visible
